This is the latest recevied weather packets stored in our database for station/object G0TGD-10. If no packets are shown the sender has not sent any weather packets the latest 10 day(s).
| Time | Temp. | Humidity | Pressure | Rain* | Wind** | Luminosity | Snow |
|---|---|---|---|---|---|---|---|
| 1777710049 | 16.11° C | 62% | 1016.7 hPa | - | - | - | - |
| 1777709149 | 16.67° C | 64% | 1016.7 hPa | - | - | - | - |
| 1777708249 | 15.56° C | 65% | 1016.6 hPa | - | - | - | - |
| 1777707349 | 14.44° C | 67% | 1016.7 hPa | - | - | - | - |
| 1777706449 | 13.33° C | 70% | 1016.7 hPa | - | - | - | - |
| 1777705549 | 11.11° C | 70% | 1016.7 hPa | - | - | - | - |
| 1777704649 | 10.56° C | 70% | 1016.9 hPa | - | - | - | - |
| 1777703748 | 10.56° C | 69% | 1016.8 hPa | - | - | - | - |
| 1777702848 | 10.56° C | 68% | 1016.9 hPa | - | - | - | - |
| 1777701948 | 10° C | 69% | 1016.6 hPa | - | - | - | - |
| 1777701048 | 9.44° C | 70% | 1016.7 hPa | - | - | - | - |
| 1777700148 | 8.89° C | 70% | 1016.7 hPa | - | - | - | - |
| 1777699248 | 8.89° C | 70% | 1016.7 hPa | - | - | - | - |
| 1777698348 | 8.89° C | 71% | 1016.6 hPa | - | - | - | - |
| 1777697448 | 8.89° C | 72% | 1016.6 hPa | - | - | - | - |
| 1777696548 | 8.89° C | 72% | 1016.5 hPa | - | - | - | - |
| 1777695648 | 8.89° C | 70% | 1016.5 hPa | - | - | - | - |
| 1777694748 | 8.89° C | 67% | 1016.5 hPa | - | - | - | - |
| 1777693950 | 9.44° C | 67% | 1016.5 hPa | - | - | - | - |
| 1777693848 | 9.44° C | 67% | 1016.5 hPa | - | - | - | - |
| 1777692947 | 10° C | 67% | 1016.5 hPa | - | - | - | - |
| 1777692047 | 10.56° C | 67% | 1016.7 hPa | - | - | - | - |
| 1777691147 | 11.11° C | 67% | 1016.6 hPa | - | - | - | - |
| 1777690247 | 11.11° C | 66% | 1016.7 hPa | - | - | - | - |
| 1777689347 | 11.67° C | 66% | 1016.7 hPa | - | - | - | - |
* Rain since midnight (hover to see other rain measurements)
** Current wind speed in m/s (hover to see current wind gust speed)